SL-12 R/B(AUX MOTOR), 36115

Orbit data source: Space-Track

SL-12 R/B(AUX MOTOR), 36115 is space debris in HEO originally from a launch on Mon, 14 Dec 2009 UTC launched from the Tyuratam Missile And Space Complex (TTMTR). Debris objects in space refer to the collection of defunct objects orbiting the Earth. Examples of debris include non-operational satellites, rocket bodies, and fragments generated from explosions, collisions, or faulty payload assembly.

Loading next visibility...
Identifier
36115, 2009-070E
Orbit
HEO
Country
Flag of CISCIS
Related business
Manufacturer
RKKE
Mission
Spacecraft
Bus & Motor
SOZ, Unknown motor
Mass
56 kg wet, 56 kg dry
Launch date (UTC)
2009-12-14 (16 years ago)
Launch vehicle
Unknown
Launch site
Tyuratam Missile And Space Complex (TTMTR)
Object type
Payload
Rocket body
Debris
Shape & HBR
Cyl, 0.6 m
Radar Cross Section
0.660 m², Medium (>0.1 m² and < 1m²)

Expand to show TLE details & history
Last TLE update: 2 days ago

TLE from 2 days ago
0 SL-12 R/B(AUX MOTOR)
1 36115U 09070E   25347.37017017 -.00000021  00000-0  37447-3 0  9991
2 36115  65.2967 312.6007 5629637 277.0702  25.3673  4.26795224248051
Epoch: 2025-12-13T08:53Z
TLE epoch observation values (Epoch: 2025-12-13T08:53:02.702Z)
Latitude
0.00006°
Longitude
97.0251°
Altitude
3,882.384 km
Speed
7.272 km/s
True Right ascension
20h 50m 20s
True Declination
0° 00' 00"
Sunlit
Object was in daylight at epoch
Visualization orbit readout
Latitude
Unknown
Longitude
Unknown
Altitude
Unknown
Speed
Unknown
Apparent Right ascension
Unknown
Apparent Declination
Unknown
Sunlit
N/A
Visualization observer readout
Local Sidereal Time
13:26:12
Azimuth
Unknown
Elevation
Unknown
Doppler factor
Unknown
Orbital elements
Apogee altitude
18,712.211 km
Perigee altitude
637.632 km
Semi-major axis
16,053.058 km
Eccentricity
0.56296
Inclination
65.2967°
RAAN
312.6007°
Arg. of periapsis
277.0702°
True anomaly
82.96892°
Mean anomaly
25.3673°
Eccentric anomaly
50.11965°
Mean motion
1.0671 °/min
Orbital period
337.36 mins
BSTAR
0.00037447
Loading maneuver chart data...
Computing Atmospheric mass density...

Documentation

Showing up to 5 results
|